Location: Newark
(40.3500°N, 15.2333°E)
Time: 12:20:33
(UTC+00:00)

Vanguard 1 - Pass Details

Date: 27 January 2020
Orbit: 649 x 3834 km, 34.3° (Epoch: 28 February)

Event Time Altitude Azimuth Distance (km) Brightness Sun altitude
Rises 15:55:18 0° 248° (WSW) 3,115 15.9 1.8°
Reaches altitude 10° 15:57:51 10° 239° (WSW) 2,081 14.2 1.4°
Maximum altitude 16:01:58 37° 171° (S) 1,010 10.4 0.7°
Drops below altitude 10° 16:06:25 10° 104° (ESE) 2,242 11.5 -0.1°
Sets 16:09:16 0° 96° (E) 3,398 12.3 -0.6°
